FW9792 Weather Reports


Display with metric or nautical units.
time (UTC)temp
F
wind
direction
speed
MPH
gust
MPH
rain 1hr
in
rain 24hr
in
rain mn
in
humidity
%
barometer
mb
20260506013029 73 67 4.0 12.0 0.00 0.00 0.00 70 1005.6
20260506011526 74 36 4.0 9.0 0.00 0.00 0.00 69 1005.1
20260506010032 74 323 4.0 9.0 0.00 0.00 0.00 69 1005.2
20260506004525 75 331 6.0 12.0 0.00 0.00 0.00 67 1005.2
20260506003025 76 325 1.0 9.0 0.00 0.00 0.00 66 1004.7
20260506001532 76 9 4.0 12.0 0.00 0.00 0.00 64 1004.7
20260506000023 77 36 6.0 14.0 0.00 0.00 0.00 63 1004.8
20260505234528 79 360 5.0 14.0 0.00 0.00 0.00 63 1004.4
20260505233022 80 317 6.0 13.0 0.00 0.00 0.00 63 1004.0
20260505231522 81 297 7.0 13.0 0.00 0.00 0.00 63 1003.8
20260505230043 83 333 6.0 11.0 0.00 0.00 0.00 60 1003.6
20260505224521 85 5 4.0 13.0 0.00 0.00 0.00 55 1003.5
20260505223020 86 47 4.0 10.0 0.00 0.00 0.00 52 1003.3
20260505221520 90 17 1.0 4.0 0.00 0.00 0.00 51 1003.0
20260505220029 89 267 1.0 6.0 0.00 0.00 0.00 53 1002.8
20260505214518 89 295 1.0 6.0 0.00 0.00 0.00 53 1003.0
20260505213016 90 265 2.0 8.0 0.00 0.00 0.00 50 1003.0
20260505211516 90 292 2.0 8.0 0.00 0.00 0.00 50 1003.0
20260505210015 91 137 1.0 5.0 0.00 0.00 0.00 52 1003.5
20260505204511 90 175 0.0 5.0 0.00 0.00 0.00 53 1003.7
20260505203015 90 279 2.0 8.0 0.00 0.00 0.00 52 1003.6
20260505201513 89 266 3.0 10.0 0.00 0.00 0.00 54 1004.0
20260505200007 89 192 0.0 6.0 0.00 0.00 0.00 55 1004.1
20260505194504 89 208 3.0 10.0 0.00 0.00 0.00 56 1004.2
20260505193001 88 148 1.0 6.0 0.00 0.00 0.00 59 1004.2
20260505191618 88 154 2.0 11.0 0.00 0.00 0.00 62 1004.1
20260505190058 87 164 2.0 8.0 0.00 0.00 0.00 62 1004.2
20260505184554 87 144 1.0 7.0 0.00 0.00 0.00 66 1004.3
20260505183051 86 165 2.0 7.0 0.00 0.00 0.00 67 1004.5
20260505181548 85 195 1.0 8.0 0.00 0.00 0.00 69 1004.6
20260505180059 84 118 2.0 9.0 0.00 0.00 0.00 70 1004.8
20260505174552 83 160 1.0 7.0 0.00 0.00 0.00 71 1004.9
20260505173039 82 150 2.0 5.0 0.00 0.00 0.00 73 1005.0
20260505171535 81 161 2.0 9.0 0.00 0.00 0.00 74 1005.1
20260505170034 81 123 2.0 7.0 0.00 0.00 0.00 74 1005.0
20260505164533 80 156 2.0 12.0 0.00 0.00 0.00 75 1005.0
20260505163030 80 154 3.0 8.0 0.00 0.00 0.00 76 1004.9
20260505161525 79 130 2.0 8.0 0.00 0.00 0.00 77 1004.6
20260505153017 76 179 3.0 10.0 0.00 0.00 0.00 81 1004.6
20260505151516 76 161 3.0 9.0 0.00 0.00 0.00 81 1004.6
20260505124505 71 196 2.0 7.0 0.00 0.00 0.00 88 1004.1
20260505123001 71 222 2.0 5.0 0.00 0.00 0.00 88 1003.9
20260505121600 71 169 2.0 5.0 0.00 0.00 0.00 88 1003.9
20260505120104 70 198 1.0 5.0 0.00 0.00 0.00 88 1003.9
20260505114602 70 127 1.0 7.0 0.00 0.00 0.00 88 1003.6
20260505113057 70 170 1.0 5.0 0.00 0.00 0.00 89 1003.6
20260505111557 70 146 1.0 8.0 0.00 0.00 0.00 89 1003.5
20260505101608 69 146 0.0 6.0 0.00 0.00 0.00 89 1003.3
20260505094551 69 157 1.0 9.0 0.00 0.00 0.00 89 1003.6
20260505093100 70 139 1.0 7.0 0.00 0.00 0.00 88 1003.7
20260505091549 70 144 2.0 5.0 0.00 0.00 0.00 88 1003.9
20260505090048 70 163 1.0 5.0 0.00 0.00 0.00 88 1003.9
20260505084545 70 177 2.0 6.0 0.00 0.00 0.00 87 1003.8
20260505083044 71 153 1.0 7.0 0.00 0.00 0.00 86 1004.2
20260505081556 71 173 1.0 8.0 0.00 0.00 0.00 85 1004.1
20260505080055 71 154 2.0 8.0 0.00 0.00 0.00 84 1004.0
20260505074538 71 170 2.0 6.0 0.00 0.00 0.00 83 1004.1
20260505073039 72 156 2.0 8.0 0.00 0.00 0.00 82 1004.3
20260505071533 72 146 2.0 7.0 0.00 0.00 0.00 81 1004.7
20260505070032 72 194 2.0 11.0 0.00 0.00 0.00 81 1004.9
20260505064530 72 167 1.0 11.0 0.00 0.00 0.00 80 1005.2
20260505063030 72 161 2.0 10.0 0.00 0.00 0.00 79 1005.5
20260505061533 73 163 2.0 7.0 0.00 0.00 0.00 79 1005.4
20260505060025 73 146 1.0 10.0 0.00 0.00 0.00 78 1005.4
20260505054523 73 193 1.0 9.0 0.00 0.00 0.00 77 1005.5
20260505053034 74 154 2.0 10.0 0.00 0.00 0.00 76 1005.2
20260505051534 74 157 1.0 7.0 0.00 0.00 0.00 76 1005.3
20260505041520 75 155 4.0 14.0 0.00 0.00 0.00 74 1005.3
20260505040013 75 143 2.0 11.0 0.00 0.00 0.00 74 1005.5
20260505034511 76 163 2.0 9.0 0.00 0.00 0.00 73 1005.4
20260505033011 76 195 2.0 10.0 0.00 0.00 0.00 73 1005.4
20260505031510 76 184 1.0 10.0 0.00 0.00 0.00 72 1005.3
20260505030009 76 158 2.0 6.0 0.00 0.00 0.00 72 1005.2
20260505024508 76 82 2.0 7.0 0.00 0.00 0.00 72 1005.6
20260505023012 76 140 3.0 11.0 0.00 0.00 0.00 72 1005.4
20260505021505 76 119 1.0 9.0 0.00 0.00 0.00 72 1005.3
20260505020005 76 194 2.0 10.0 0.00 0.00 0.00 71 1005.2
20260505014505 76 175 2.0 8.0 0.00 0.00 0.00 71 1005.1